Flag for Cyprus Weather past 2 weeks in Kyrenia, Cyprus

Now
50 °F

Passing clouds.


Feels Like: 48 °F
Forecast: 48 / 65 °F
Wind: 5 mph from Northwest

Location: Ercan

Current Time: Dec 28, 2014 at 1:03:51 AM

Latest Report: Dec 28, 2014 at 12:20 AM


Visibility: 4 mi

Pressure: 29.95 "Hg

Humidity: 94%

Dew point: 48 °F

Location of KyreniaLocation

Historic Weather in Kyrenia — Graph

°F

Kyrenia temperature yesterday

Maximum temperature yesterday: 63 °F (at 12:50 PM)
Minimum temperature yesterday: 45 °F (at 1:20 AM)
Average temperature yesterday: 53 °F

Past Weeks' High & Low Weather Summary

 TemperatureHumidityPressure
High66 °F (Dec 15, 12:20 PM)100% (Dec 13, 9:50 AM)30.30 "Hg (Dec 13, 9:50 AM)
Low39 °F (Dec 23, 6:20 AM)39% (Dec 23, 2:50 PM)29.89 "Hg (Dec 27, 2:50 PM)
Average54 °F80%30.11 "Hg
* Reported Dec 12 11:20 PM — Dec 27 11:50 PM, Kyrenia, Weather by CustomWeather, © 2014

Note: Actual official high and low records may vary slightly from our data, if they occured in-between our weather recording intervals... More about our weather records

Advertising

Kyrenia weather history for previous 24 hours

 ConditionsComfort  
Time TempWeatherWind HumidityBarometerVisibility
11:50 PM
Dec 27
52 °FPassing clouds.7 mph94%29.95 "Hg5 mi
11:20 PM52 °FPartly cloudy.No wind94%29.95 "Hg5 mi
10:50 PM52 °FPartly cloudy.5 mph94%29.95 "Hg5 mi
10:20 PM52 °FPartly cloudy.No wind94%29.95 "Hg5 mi
9:50 PM52 °FPartly cloudy.No wind94%29.95 "HgN/A
9:20 PM52 °FPartly cloudy.3 mph88%29.95 "HgN/A
8:50 PM50 °FPassing clouds.No wind94%29.95 "HgN/A
8:20 PM52 °FPassing clouds.3 mph94%29.92 "HgN/A
7:50 PM52 °FPassing clouds.3 mph94%29.92 "HgN/A
7:20 PM52 °FPassing clouds.5 mph88%29.92 "HgN/A
6:50 PM55 °FPassing clouds.6 mph88%29.92 "HgN/A
6:20 PM54 °FPartly cloudy.6 mph88%29.92 "HgN/A
5:50 PM55 °FPartly cloudy.No wind88%29.92 "HgN/A
5:20 PM55 °FPartly cloudy.No wind88%29.92 "HgN/A
4:50 PM55 °FPartly cloudy.No wind88%29.92 "HgN/A
4:20 PM55 °FBroken clouds.No wind88%29.92 "HgN/A
4:00 PM55 °FBroken clouds.5 mph88%29.92 "HgN/A
3:50 PM55 °FSprinkles. Broken clouds.3 mph88%29.92 "HgN/A
3:20 PM59 °FSprinkles. Broken clouds.7 mph88%29.92 "Hg4 mi
2:50 PM59 °FBroken clouds.5 mph88%29.89 "HgN/A
2:20 PM59 °FRain showers. Broken clouds.5 mph82%29.92 "Hg4 mi
2:00 PM61 °FSprinkles. Broken clouds.5 mph77%29.92 "Hg5 mi
1:20 PM63 °FScattered clouds.5 mph73%29.92 "HgN/A
12:50 PM63 °FScattered clouds.No wind68%29.92 "HgN/A
12:20 PM61 °FScattered clouds.No wind77%29.92 "HgN/A
11:50 AM59 °FScattered clouds.3 mph82%29.95 "HgN/A
11:20 AM61 °FBroken clouds.No wind77%29.98 "HgN/A
10:50 AM57 °FBroken clouds.5 mph88%29.98 "HgN/A
10:20 AM55 °FBroken clouds.3 mph88%29.98 "HgN/A
9:50 AM54 °FLight rain. Broken clouds.6 mph94%30.01 "HgN/A
9:20 AM54 °FLight rain. Broken clouds.No wind88%29.98 "HgN/A
8:50 AM52 °FBroken clouds.7 mph94%30.01 "HgN/A
8:20 AM52 °FBroken clouds.3 mph88%29.98 "HgN/A
7:50 AM52 °FBroken clouds.No wind88%29.98 "HgN/A
7:20 AM50 °FBroken clouds.5 mph94%29.98 "HgN/A
6:50 AM50 °FPartly cloudy.No wind94%29.98 "HgN/A
6:20 AM50 °FPartly cloudy.No wind88%29.98 "HgN/A
5:20 AM50 °FPartly cloudy.No wind88%29.95 "HgN/A
4:50 AM50 °FPassing clouds.No wind88%29.95 "HgN/A
4:20 AM48 °FPassing clouds.3 mph94%29.95 "HgN/A
3:50 AM46 °FPassing clouds.6 mph93%29.98 "HgN/A
3:20 AM46 °FPassing clouds.5 mph87%29.98 "HgN/A
2:50 AM48 °FPassing clouds.5 mph87%29.98 "HgN/A
2:20 AM46 °FPassing clouds.3 mph93%29.98 "HgN/A
1:50 AM45 °FPassing clouds.6 mph93%29.98 "HgN/A
1:20 AM45 °FPassing clouds.7 mph93%29.98 "HgN/A
Weather by CustomWeather, © 2014

See weather overviewHow to use our weather pages